• In Hungary
  • List of Countries
  • For 7 days
  • Water Temperature
  • Satellite Maps
  • Weather Map
  • News
  • Weather Widgets
  • user-avatar
    Login

    Hourly Weather Golden Sands

    Today, 22 February, Thursday

    Time Temperature Precipitation Wind Pressure Humidity
    00:00 +2°C° 0 mm 7 mps 760 mmHg 88%
    01:00 +2°C° 0 mm 7 mps 760 mmHg 88%
    02:00 +2°C° 0 mm 7 mps 760 mmHg 89%
    03:00 +2°C° 0 mm 7 mps 760 mmHg 89%
    04:00 +2°C° 0 mm 7 mps 759 mmHg 89%
    05:00 +2°C° 0 mm 7 mps 759 mmHg 90%
    06:00 +2°C° 0.7 mm 7 mps 759 mmHg 90%
    07:00 +2°C° 0.7 mm 7 mps 759 mmHg 91%
    08:00 +2°C° 0.7 mm 7 mps 759 mmHg 92%
    09:00 +2°C° 1.4 mm 7 mps 759 mmHg 92%
    10:00 +2°C° 1.4 mm 7 mps 759 mmHg 92%
    11:00 +2°C° 1.4 mm 7 mps 759 mmHg 93%
    12:00 +2°C° 1.2 mm 7 mps 759 mmHg 92%
    13:00 +2°C° 1.2 mm 7 mps 759 mmHg 92%
    14:00 +2°C° 1.2 mm 7 mps 759 mmHg 92%
    15:00 +2°C° 0.2 mm 7 mps 759 mmHg 92%
    16:00 +3°C° 0.2 mm 7 mps 759 mmHg 91%
    17:00 +3°C° 0.2 mm 7 mps 760 mmHg 91%
    18:00 +2°C° 0 mm 7 mps 760 mmHg 91%
    19:00 +2°C° 0 mm 7 mps 760 mmHg 92%
    20:00 +2°C° 0 mm 7 mps 760 mmHg 92%
    21:00 +2°C° 0 mm 6 mps 760 mmHg 92%
    22:00 +2°C° 0 mm 6 mps 761 mmHg 92%
    23:00 +2°C° 0 mm 6 mps 761 mmHg 92%

    Tomorrow, 23 February, Friday

    Time Temperature Precipitation Wind Pressure Humidity
    00:00 +2°C° 0 mm 6 mps 761 mmHg 92%
    01:00 +1°C° 0 mm 6 mps 761 mmHg 92%
    02:00 +1°C° 0 mm 6 mps 761 mmHg 92%
    03:00 +1°C° 0 mm 6 mps 761 mmHg 92%
    04:00 +1°C° 0 mm 6 mps 761 mmHg 92%
    05:00 -1°C° 0 mm 7 mps 761 mmHg 92%
    06:00 +1°C° 0 mm 6 mps 761 mmHg 92%
    07:00 +1°C° 0 mm 6 mps 761 mmHg 91%
    08:00 +1°C° 0 mm 6 mps 762 mmHg 90%
    09:00 +1°C° 0 mm 6 mps 762 mmHg 90%
    10:00 +1°C° 0 mm 6 mps 762 mmHg 89%
    11:00 +2°C° 0 mm 6 mps 763 mmHg 88%
    12:00 +2°C° 0 mm 6 mps 762 mmHg 86%
    13:00 +2°C° 0 mm 6 mps 762 mmHg 84%
    14:00 +3°C° 0 mm 6 mps 762 mmHg 82%
    15:00 +3°C° 0 mm 6 mps 762 mmHg 82%
    16:00 +2°C° 0 mm 6 mps 762 mmHg 82%
    17:00 +2°C° 0 mm 6 mps 762 mmHg 82%
    18:00 +2°C° 0 mm 6 mps 762 mmHg 83%
    19:00 +2°C° 0 mm 5 mps 763 mmHg 85%
    20:00 +1°C° 0 mm 5 mps 763 mmHg 86%
    21:00 +1°C° 0 mm 5 mps 763 mmHg 86%
    22:00 +1°C° 0 mm 5 mps 763 mmHg 86%
    23:00 +1°C° 0 mm 5 mps 763 mmHg 86%

    Day after tomorrow, 24 February, Saturday

    Time Temperature Precipitation Wind Pressure Humidity
    00:00 +1°C° 0 mm 4 mps 763 mmHg 87%
    01:00 0°C° 0 mm 4 mps 763 mmHg 87%
    02:00 0°C° 0 mm 4 mps 762 mmHg 88%
    03:00 0°C° 0 mm 4 mps 762 mmHg 88%
    04:00 +1°C° 0 mm 3 mps 762 mmHg 88%
    05:00 0°C° 0 mm 3 mps 762 mmHg 88%
    06:00 0°C° 0 mm 3 mps 762 mmHg 87%
    07:00 0°C° 0 mm 4 mps 762 mmHg 86%
    08:00 0°C° 0 mm 4 mps 762 mmHg 84%
    09:00 +1°C° 0 mm 4 mps 762 mmHg 80%
    10:00 +3°C° 0 mm 4 mps 762 mmHg 75%
    11:00 +3°C° 0 mm 4 mps 762 mmHg 71%
    12:00 +4°C° 0 mm 4 mps 761 mmHg 71%
    13:00 +4°C° 0 mm 4 mps 761 mmHg 71%
    14:00 +4°C° 0 mm 4 mps 760 mmHg 71%
    15:00 +4°C° 0 mm 4 mps 760 mmHg 74%
    16:00 +3°C° 0 mm 4 mps 760 mmHg 77%
    17:00 +3°C° 0 mm 4 mps 760 mmHg 79%
    18:00 +2°C° 0 mm 5 mps 760 mmHg 81%
    19:00 +1°C° 0 mm 5 mps 760 mmHg 82%
    20:00 +1°C° 0 mm 5 mps 760 mmHg 83%
    21:00 +1°C° 0 mm 5 mps 760 mmHg 84%
    22:00 +1°C° 0 mm 5 mps 760 mmHg 85%
    23:00 +1°C° 0 mm 5 mps 760 mmHg 86%

    25 February, Sunday

    Time Temperature Precipitation Wind Pressure Humidity
    00:00 +1°C° 0.1 mm 5 mps 760 mmHg 86%
    01:00 +1°C° 0.1 mm 6 mps 760 mmHg 86%
    02:00 +1°C° 0.1 mm 6 mps 760 mmHg 86%
    03:00 +1°C° 0 mm 6 mps 760 mmHg 87%
    04:00 +1°C° 0 mm 6 mps 759 mmHg 87%
    05:00 -1°C° 0 mm 6 mps 759 mmHg 88%
    06:00 -1°C° 0.1 mm 6 mps 759 mmHg 87%
    07:00 +1°C° 0.1 mm 6 mps 760 mmHg 87%
    08:00 +1°C° 0.1 mm 6 mps 760 mmHg 86%
    09:00 -1°C° 0.1 mm 7 mps 760 mmHg 86%
    10:00 -1°C° 0.1 mm 7 mps 760 mmHg 85%
    11:00 -1°C° 0.1 mm 7 mps 760 mmHg 85%
    12:00 -1°C° 0.1 mm 7 mps 760 mmHg 85%
    13:00 -1°C° 0.1 mm 7 mps 760 mmHg 85%
    14:00 -1°C° 0.1 mm 7 mps 760 mmHg 86%
    15:00 -2°C° 0.1 mm 7 mps 761 mmHg 86%
    16:00 -2°C° 0.1 mm 7 mps 761 mmHg 87%
    17:00 -2°C° 0.1 mm 8 mps 761 mmHg 87%
    18:00 -2°C° 0.1 mm 8 mps 762 mmHg 88%
    19:00 -3°C° 0.1 mm 7 mps 762 mmHg 88%
    20:00 -3°C° 0.1 mm 7 mps 762 mmHg 89%
    21:00 -4°C° 0.3 mm 8 mps 763 mmHg 89%
    22:00 -4°C° 0.3 mm 8 mps 763 mmHg 89%
    23:00 -4°C° 0.3 mm 8 mps 763 mmHg 89%

    26 February, Monday

    Time Temperature Precipitation Wind Pressure Humidity
    00:00 -4°C° 0.3 mm 8 mps 763 mmHg 89%
    01:00 -4°C° 0.3 mm 9 mps 763 mmHg 89%
    02:00 -4°C° 0.3 mm 9 mps 763 mmHg 89%
    03:00 -4°C° 0.3 mm 9 mps 763 mmHg 89%
    04:00 -4°C° 0.3 mm 9 mps 763 mmHg 89%
    05:00 -4°C° 0.3 mm 9 mps 763 mmHg 89%
    06:00 -3°C° 0.3 mm 10 mps 763 mmHg 89%
    07:00 -3°C° 0.3 mm 10 mps 763 mmHg 89%
    08:00 -3°C° 0.3 mm 11 mps 763 mmHg 88%
    09:00 -3°C° 0.2 mm 11 mps 763 mmHg 87%
    10:00 -3°C° 0.2 mm 11 mps 763 mmHg 86%
    11:00 -3°C° 0.2 mm 11 mps 763 mmHg 84%
    12:00 -3°C° 0.1 mm 11 mps 763 mmHg 84%
    13:00 -3°C° 0.1 mm 11 mps 762 mmHg 83%
    14:00 -3°C° 0.1 mm 11 mps 762 mmHg 83%
    15:00 -3°C° 0.1 mm 11 mps 761 mmHg 83%
    16:00 -3°C° 0.1 mm 11 mps 761 mmHg 83%
    17:00 -3°C° 0.1 mm 12 mps 761 mmHg 82%
    18:00 -3°C° 0.2 mm 12 mps 761 mmHg 83%
    19:00 -3°C° 0.2 mm 12 mps 760 mmHg 84%
    20:00 -3°C° 0.2 mm 11 mps 760 mmHg 85%
    21:00 -3°C° 0.1 mm 12 mps 759 mmHg 84%
    22:00 -3°C° 0.1 mm 12 mps 758 mmHg 84%
    23:00 -2°C° 0.1 mm 13 mps 758 mmHg 83%

    27 February, Tuesday

    Time Temperature Precipitation Wind Pressure Humidity
    00:00 -2°C° 0.2 mm 13 mps 757 mmHg 84%
    01:00 -2°C° 0.2 mm 13 mps 756 mmHg 85%
    02:00 -2°C° 0.2 mm 13 mps 755 mmHg 86%
    03:00 -2°C° 0.7 mm 13 mps 754 mmHg 87%
    04:00 -2°C° 0.7 mm 13 mps 753 mmHg 88%
    05:00 -2°C° 0.7 mm 13 mps 752 mmHg 89%
    06:00 -2°C° 1.5 mm 14 mps 752 mmHg 90%
    07:00 -2°C° 1.5 mm 14 mps 751 mmHg 90%
    08:00 -2°C° 1.5 mm 14 mps 750 mmHg 91%
    09:00 -1°C° 2.6 mm 13 mps 750 mmHg 92%
    10:00 -1°C° 2.6 mm 12 mps 749 mmHg 93%
    11:00 -1°C° 2.6 mm 11 mps 748 mmHg 95%
    12:00 0°C° 1.3 mm 10 mps 748 mmHg 95%
    13:00 0°C° 1.3 mm 9 mps 747 mmHg 96%
    14:00 0°C° 1.3 mm 8 mps 747 mmHg 97%
    15:00 0°C° 0.4 mm 8 mps 747 mmHg 96%
    16:00 -1°C° 0.4 mm 8 mps 747 mmHg 95%
    17:00 -1°C° 0.4 mm 9 mps 748 mmHg 93%
    18:00 -4°C° 0.1 mm 9 mps 749 mmHg 93%
    19:00 -7°C° 0.1 mm 10 mps 750 mmHg 92%
    20:00 -8°C° 0.1 mm 10 mps 751 mmHg 91%
    21:00 -9°C° 0 mm 9 mps 752 mmHg 91%
    22:00 -10°C° 0 mm 8 mps 753 mmHg 91%
    23:00 -11°C° 0 mm 7 mps 754 mmHg 91%
    Show more